| time (UTC) | temp F | wind direction | speed knots | gust knots | rain 1hr in | rain 24hr in | rain mn in | humidity % | barometer mb |
| 20260502194422 | 61 | 135 | 0.0 | 0.0 | 0.00 | 0.00 | 0.00 | 34 | 1013.1 |
| 20260502193422 | 62 | 247 | 0.0 | 0.0 | 0.00 | 0.00 | 0.00 | 34 | 1013.1 |
| 20260502192441 | 62 | 249 | 0.0 | 0.0 | 0.00 | 0.00 | 0.00 | 36 | 1013.0 |
| 20260502191421 | 62 | 181 | 0.0 | 0.0 | 0.00 | 0.00 | 0.00 | 34 | 1013.1 |
| 20260502190421 | 62 | 121 | 0.0 | 0.0 | 0.00 | 0.00 | 0.00 | 33 | 1013.2 |
| 20260502185420 | 62 | 87 | 0.0 | 0.0 | 0.00 | 0.00 | 0.00 | 34 | 1013.4 |
| 20260502184420 | 61 | 283 | 0.0 | 0.0 | 0.00 | 0.00 | 0.00 | 40 | 1013.5 |
| 20260502183420 | 61 | 167 | 0.0 | 0.0 | 0.00 | 0.00 | 0.00 | 35 | 1013.5 |
| 20260502182419 | 61 | 50 | 0.0 | 0.0 | 0.00 | 0.00 | 0.00 | 37 | 1013.7 |
| 20260502181419 | 59 | 51 | 0.0 | 0.0 | 0.00 | 0.00 | 0.00 | 39 | 1013.8 |
| 20260502180419 | 59 | 200 | 0.0 | 0.0 | 0.00 | 0.00 | 0.00 | 40 | 1013.9 |
| 20260502170417 | 56 | 5 | 0.0 | 0.0 | 0.00 | 0.00 | 0.00 | 40 | 1014.9 |
| 20260502163416 | 55 | 49 | 0.0 | 0.0 | 0.00 | 0.00 | 0.00 | 43 | 1015.5 |
| 20260502162416 | 55 | 117 | 0.0 | 0.0 | 0.00 | 0.00 | 0.00 | 41 | 1015.5 |
| 20260502161415 | 56 | 116 | 0.0 | 0.0 | 0.00 | 0.00 | 0.00 | 41 | 1015.8 |
| 20260502160415 | 56 | 205 | 0.0 | 0.0 | 0.00 | 0.00 | 0.00 | 43 | 1015.9 |
| 20260502151413 | 52 | 67 | 0.0 | 0.0 | 0.00 | 0.00 | 0.00 | 45 | 1016.1 |
| 20260502150413 | 52 | 71 | 0.0 | 0.0 | 0.00 | 0.00 | 0.00 | 46 | 1016.1 |
| 20260502130429 | 48 | 29 | 0.0 | 0.0 | 0.00 | 0.00 | 0.00 | 55 | 1016.1 |
| 20260502123408 | 48 | 348 | 0.0 | 0.0 | 0.00 | 0.00 | 0.00 | 56 | 1015.8 |
| 20260502122407 | 48 | 117 | 0.0 | 2.6 | 0.00 | 0.00 | 0.00 | 56 | 1015.9 |
| 20260502121407 | 48 | 207 | 1.7 | 2.6 | 0.00 | 0.00 | 0.00 | 55 | 1015.7 |
| 20260502120407 | 48 | 136 | 0.0 | 1.7 | 0.00 | 0.00 | 0.00 | 55 | 1015.7 |
| 20260502115407 | 48 | 71 | 6.1 | 8.7 | 0.00 | 0.00 | 0.00 | 54 | 1015.4 |
| 20260502114406 | 48 | 31 | 2.6 | 2.6 | 0.00 | 0.00 | 0.00 | 53 | 1015.4 |
| 20260502113446 | 48 | 76 | 8.7 | 8.7 | 0.00 | 0.00 | 0.00 | 53 | 1015.1 |
| 20260502112406 | 48 | 62 | 0.9 | 2.6 | 0.00 | 0.00 | 0.00 | 53 | 1015.3 |
| 20260502111406 | 48 | 13 | 2.6 | 3.5 | 0.00 | 0.00 | 0.00 | 53 | 1015.1 |
| 20260502110405 | 49 | 74 | 0.0 | 2.6 | 0.00 | 0.00 | 0.00 | 52 | 1015.0 |
| 20260502105405 | 49 | 75 | 0.0 | 0.9 | 0.00 | 0.00 | 0.00 | 51 | 1015.0 |
| 20260502104405 | 49 | 125 | 5.2 | 5.2 | 0.00 | 0.00 | 0.00 | 50 | 1015.1 |
| 20260502103404 | 49 | 118 | 0.0 | 1.7 | 0.00 | 0.00 | 0.00 | 50 | 1015.1 |
| 20260502102404 | 50 | 71 | 0.0 | 0.9 | 0.00 | 0.00 | 0.00 | 51 | 1015.2 |
| 20260502101404 | 50 | 274 | 0.0 | 0.0 | 0.00 | 0.00 | 0.00 | 51 | 1015.2 |
| 20260502100404 | 50 | 76 | 0.0 | 0.0 | 0.00 | 0.00 | 0.00 | 51 | 1015.2 |
| 20260502091402 | 51 | 113 | 0.0 | 0.0 | 0.00 | 0.00 | 0.00 | 55 | 1015.0 |
| 20260502090422 | 50 | 104 | 1.7 | 5.2 | 0.00 | 0.00 | 0.00 | 57 | 1015.0 |
| 20260502071358 | 52 | 96 | 0.0 | 2.6 | 0.00 | 0.00 | 0.00 | 62 | 1014.7 |
| 20260502070358 | 52 | 126 | 0.9 | 2.6 | 0.00 | 0.00 | 0.00 | 61 | 1014.8 |
| 20260502065358 | 52 | 72 | 1.7 | 4.3 | 0.00 | 0.00 | 0.00 | 61 | 1014.7 |
| 20260502064357 | 52 | 91 | 1.7 | 1.7 | 0.00 | 0.00 | 0.00 | 60 | 1014.7 |
| 20260502063417 | 52 | 69 | 0.0 | 3.5 | 0.00 | 0.00 | 0.00 | 60 | 1014.8 |
| 20260502062417 | 52 | 94 | 0.0 | 0.0 | 0.00 | 0.00 | 0.00 | 60 | 1014.9 |
| 20260502061356 | 53 | 153 | 0.0 | 0.0 | 0.00 | 0.00 | 0.00 | 59 | 1015.0 |
| 20260502060416 | 53 | 111 | 0.0 | 2.6 | 0.00 | 0.00 | 0.00 | 59 | 1015.1 |
| 20260502055416 | 53 | 180 | 0.9 | 0.9 | 0.00 | 0.00 | 0.00 | 58 | 1015.1 |
| 20260502054355 | 54 | 64 | 0.9 | 6.1 | 0.00 | 0.00 | 0.00 | 58 | 1014.9 |
| 20260502053355 | 54 | 182 | 0.9 | 3.5 | 0.00 | 0.00 | 0.00 | 58 | 1014.9 |
| 20260502052354 | 54 | 147 | 0.9 | 3.5 | 0.00 | 0.00 | 0.00 | 58 | 1014.9 |
| 20260502051354 | 54 | 38 | 2.6 | 2.6 | 0.00 | 0.00 | 0.00 | 57 | 1014.9 |
| 20260502050354 | 55 | 49 | 4.3 | 4.3 | 0.00 | 0.00 | 0.00 | 57 | 1015.0 |
| 20260502045353 | 55 | 93 | 0.0 | 0.0 | 0.00 | 0.00 | 0.00 | 57 | 1015.2 |
| 20260502044353 | 55 | 246 | 0.0 | 0.0 | 0.00 | 0.00 | 0.00 | 58 | 1014.9 |
| 20260502043353 | 56 | 101 | 1.7 | 2.6 | 0.00 | 0.00 | 0.00 | 60 | 1014.9 |
| 20260502042412 | 56 | 174 | 1.7 | 1.7 | 0.00 | 0.00 | 0.00 | 60 | 1014.8 |
| 20260502041352 | 56 | 36 | 0.0 | 0.0 | 0.00 | 0.00 | 0.00 | 58 | 1014.9 |
| 20260502040352 | 56 | 95 | 0.0 | 0.0 | 0.00 | 0.00 | 0.00 | 58 | 1014.8 |
| 20260502035352 | 57 | 84 | 0.0 | 0.9 | 0.00 | 0.00 | 0.00 | 57 | 1014.8 |
| 20260502034411 | 57 | 87 | 0.0 | 1.7 | 0.00 | 0.00 | 0.00 | 57 | 1014.9 |
| 20260502033351 | 57 | 91 | 0.0 | 0.0 | 0.00 | 0.00 | 0.00 | 57 | 1014.8 |
| 20260502032350 | 58 | 86 | 0.0 | 0.0 | 0.00 | 0.00 | 0.00 | 56 | 1014.5 |
| 20260502031430 | 58 | 79 | 0.0 | 0.0 | 0.00 | 0.00 | 0.00 | 55 | 1014.3 |
| 20260502030350 | 58 | 178 | 0.0 | 0.0 | 0.00 | 0.00 | 0.00 | 54 | 1014.2 |
| 20260502025349 | 59 | 59 | 0.0 | 0.0 | 0.00 | 0.00 | 0.00 | 53 | 1014.1 |
| 20260502024349 | 59 | 53 | 0.0 | 0.0 | 0.00 | 0.00 | 0.00 | 52 | 1014.0 |
| 20260502023348 | 59 | 224 | 0.0 | 0.0 | 0.00 | 0.00 | 0.00 | 56 | 1013.8 |
| 20260502022348 | 59 | 109 | 0.0 | 0.9 | 0.00 | 0.00 | 0.00 | 59 | 1013.7 |
| 20260502021348 | 59 | 296 | 0.0 | 0.0 | 0.00 | 0.00 | 0.00 | 60 | 1013.3 |
| 20260502020348 | 59 | 296 | 0.0 | 0.0 | 0.00 | 0.00 | 0.00 | 58 | 1013.0 |
| 20260502015347 | 59 | 296 | 0.0 | 0.0 | 0.00 | 0.00 | 0.00 | 57 | 1013.1 |
| 20260502014347 | 59 | 287 | 0.0 | 0.0 | 0.00 | 0.00 | 0.00 | 57 | 1013.0 |
| 20260502013347 | 59 | 292 | 0.0 | 0.9 | 0.00 | 0.00 | 0.00 | 57 | 1013.1 |
| 20260502012346 | 59 | 284 | 0.0 | 0.0 | 0.00 | 0.00 | 0.00 | 58 | 1012.9 |
| 20260502011346 | 59 | 286 | 0.0 | 0.0 | 0.00 | 0.00 | 0.00 | 57 | 1012.8 |
| 20260502010345 | 59 | 304 | 0.0 | 1.7 | 0.00 | 0.00 | 0.00 | 57 | 1012.7 |
| 20260502005345 | 60 | 280 | 0.0 | 0.0 | 0.00 | 0.00 | 0.00 | 55 | 1012.5 |
| 20260502004345 | 60 | 292 | 0.0 | 0.0 | 0.00 | 0.00 | 0.00 | 54 | 1012.4 |
| 20260502003345 | 61 | 277 | 0.0 | 0.0 | 0.00 | 0.00 | 0.00 | 53 | 1012.4 |
| 20260502002344 | 61 | 286 | 0.0 | 0.0 | 0.00 | 0.00 | 0.00 | 53 | 1012.2 |
| 20260502001344 | 61 | 313 | 0.0 | 0.0 | 0.00 | 0.00 | 0.00 | 52 | 1012.1 |
| 20260502000403 | 62 | 318 | 0.0 | 0.0 | 0.00 | 0.00 | 0.00 | 51 | 1012.0 |
| 20260501235343 | 62 | 209 | 0.0 | 0.0 | 0.00 | 0.00 | 0.00 | 50 | 1011.5 |
| 20260501234343 | 62 | 309 | 0.0 | 0.0 | 0.00 | 0.00 | 0.00 | 50 | 1011.4 |
| 20260501233342 | 62 | 316 | 0.0 | 0.0 | 0.00 | 0.00 | 0.00 | 50 | 1011.4 |
| 20260501232342 | 63 | 292 | 0.0 | 0.0 | 0.00 | 0.00 | 0.00 | 50 | 1011.4 |
| 20260501231342 | 64 | 346 | 0.0 | 2.6 | 0.00 | 0.00 | 0.00 | 48 | 1011.4 |
| 20260501230341 | 64 | 284 | 2.6 | 2.6 | 0.00 | 0.00 | 0.00 | 48 | 1011.3 |
| 20260501225341 | 64 | 319 | 0.0 | 0.0 | 0.00 | 0.00 | 0.00 | 48 | 1011.3 |
| 20260501224341 | 65 | 310 | 0.9 | 1.7 | 0.00 | 0.00 | 0.00 | 47 | 1011.3 |
| 20260501223340 | 65 | 344 | 3.5 | 3.5 | 0.00 | 0.00 | 0.00 | 46 | 1011.3 |
| 20260501222420 | 65 | 304 | 0.9 | 0.9 | 0.00 | 0.00 | 0.00 | 46 | 1011.4 |
| 20260501221340 | 66 | 258 | 0.0 | 0.9 | 0.00 | 0.00 | 0.00 | 44 | 1011.5 |
| 20260501220339 | 67 | 355 | 0.9 | 0.9 | 0.00 | 0.00 | 0.00 | 43 | 1011.5 |
| 20260501215339 | 67 | 281 | 0.0 | 0.9 | 0.00 | 0.00 | 0.00 | 44 | 1011.7 |
| 20260501214339 | 67 | 5 | 0.9 | 4.3 | 0.00 | 0.00 | 0.00 | 43 | 1011.7 |
| 20260501213339 | 67 | 287 | 0.0 | 0.9 | 0.00 | 0.00 | 0.00 | 43 | 1011.7 |
| 20260501212338 | 65 | 315 | 0.0 | 0.9 | 0.00 | 0.00 | 0.00 | 45 | 1011.9 |
| 20260501211338 | 66 | 296 | 2.6 | 2.6 | 0.00 | 0.00 | 0.00 | 43 | 1011.9 |
| 20260501210337 | 66 | 337 | 2.6 | 3.5 | 0.00 | 0.00 | 0.00 | 43 | 1012.0 |
| 20260501205339 | 67 | 308 | 2.6 | 3.5 | 0.00 | 0.00 | 0.00 | 43 | 1012.1 |
| 20260501204336 | 66 | 10 | 0.0 | 0.0 | 0.00 | 0.00 | 0.00 | 41 | 1012.2 |
| 20260501203336 | 66 | 275 | 2.6 | 3.5 | 0.00 | 0.00 | 0.00 | 43 | 1012.2 |
| 20260501202336 | 66 | 355 | 0.0 | 0.0 | 0.00 | 0.00 | 0.00 | 43 | 1012.5 |
| 20260501201335 | 67 | 281 | 5.2 | 5.2 | 0.00 | 0.00 | 0.00 | 42 | 1012.6 |
| 20260501200335 | 67 | 314 | 2.6 | 5.2 | 0.00 | 0.00 | 0.00 | 40 | 1012.7 |
| 20260501195335 | 67 | 311 | 0.0 | 3.5 | 0.00 | 0.00 | 0.00 | 42 | 1012.9 |